This is the latest recevied weather packets stored in our database for station/object OK0EK-11. If no packets are shown the sender has not sent any weather packets the latest 10 day(s).
| Time | Temp. | Humidity | Pressure | Rain* | Wind** | Luminosity | Snow |
|---|---|---|---|---|---|---|---|
| 1777967860 | 14.44° C | 47% | 1012.2 hPa | - | - | - | - |
| 1777967260 | 13.89° C | 47% | 1012.2 hPa | - | - | - | - |
| 1777966660 | 13.89° C | 47% | 1011.6 hPa | - | - | - | - |
| 1777966061 | 13.89° C | 49% | 1011.8 hPa | - | - | - | - |
| 1777965461 | 13.33° C | 49% | 1011.8 hPa | - | - | - | - |
| 1777964861 | 13.89° C | 48% | 1012.1 hPa | - | - | - | - |
| 1777964262 | 13.89° C | 48% | 1012.2 hPa | - | - | - | - |
| 1777963662 | 13.89° C | 47% | 1012 hPa | - | - | - | - |
| 1777963062 | 13.89° C | 48% | 1012 hPa | - | - | - | - |
| 1777962462 | 13.89° C | 49% | 1012.4 hPa | - | - | - | - |
| 1777961864 | 13.33° C | 48% | 1012.2 hPa | - | - | - | - |
| 1777961264 | 13.33° C | 49% | 1012.1 hPa | - | - | - | - |
| 1777960665 | 13.33° C | 49% | 1012 hPa | - | - | - | - |
| 1777960066 | 13.33° C | 50% | 1012.5 hPa | - | - | - | - |
| 1777959466 | 13.33° C | 50% | 1012.1 hPa | - | - | - | - |
| 1777958867 | 13.33° C | 51% | 1012.4 hPa | - | - | - | - |
| 1777958267 | 12.78° C | 51% | 1012.2 hPa | - | - | - | - |
| 1777957667 | 12.78° C | 51% | 1012.3 hPa | - | - | - | - |
| 1777957067 | 12.78° C | 51% | 1012.3 hPa | - | - | - | - |
| 1777956467 | 12.78° C | 50% | 1012.4 hPa | - | - | - | - |
| 1777955868 | 12.78° C | 50% | 1012.4 hPa | - | - | - | - |
| 1777955268 | 12.78° C | 49% | 1012.5 hPa | - | - | - | - |
| 1777954668 | 12.78° C | 49% | 1012.4 hPa | - | - | - | - |
| 1777954068 | 12.22° C | 49% | 1012.2 hPa | - | - | - | - |
| 1777953469 | 12.22° C | 50% | 1012.4 hPa | - | - | - | - |
* Rain since midnight (hover to see other rain measurements)
** Current wind speed in m/s (hover to see current wind gust speed)